^^
Grace C. Lehan Memorial Weather Station Historical Data
Daily Summary for August 05, 2021 Units:  Metric    English   Both
Daily Weekly Monthly Yearly
  High: Low: Average:
Temperature: 23.9 °C 18.2 °C 20.4 °C
Dew Point: 20.1 °C 17.3 °C 18.4 °C
Humidity: 96% 77.1% 89%
Wind Speed: 5.5km/h 0km/h 0.6km/h
Wind Gust: 20.9km/h - -
Wind- - SSE
Pressure: 1018.8 hPa 1016.5 hPa -
Precipitation: 1.52 mm    
 
 
Tabular Data for August 05, 2021
Time Temperature Dew Point Pressure Wind Wind Speed Wind Gust Humidity Rainfall Rate (Hourly) solar
00:04 19.8 °C 17.7 °C 1018.8 hPa Calm   6.4 km/h 87.5% 0 mm 0 W/m2
00:09 19.7 °C 17.7 °C 1018.8 hPa East 1 km/h 8 km/h 88% 0 mm 0 W/m2
00:14 19.7 °C 17.6 °C 1018.8 hPa East 0.6 km/h 8 km/h 88% 0 mm 0 W/m2
00:19 19.6 °C 17.6 °C 1018.8 hPa East 1 km/h 9.7 km/h 88% 0 mm 0 W/m2
00:24 19.6 °C 17.5 °C 1018.8 hPa NE 4.8 km/h 11.3 km/h 88% 0 mm 0 W/m2
00:29 19.5 °C 17.5 °C 1018.8 hPa ENE 3.9 km/h 11.3 km/h 88% 0 mm 0 W/m2
00:34 19.4 °C 17.4 °C 1018.8 hPa NE 3.5 km/h 11.3 km/h 88% 0 mm 0 W/m2
00:39 19.4 °C 17.3 °C 1018.8 hPa ENE 1.1 km/h 8 km/h 88% 0 mm 0 W/m2
00:44 19.3 °C 17.3 °C 1018.8 hPa ENE 3.1 km/h 8 km/h 88.1% 0 mm 0 W/m2
00:49 19.3 °C 17.4 °C 1018.8 hPa ENE 0.3 km/h 8 km/h 89% 0 mm 0 W/m2
00:54 19.3 °C 17.4 °C 1018.8 hPa ENE 1.9 km/h 8 km/h 89% 0 mm 0 W/m2
00:59 19.3 °C 17.4 °C 1018.8 hPa NE 2.3 km/h 9.7 km/h 89% 0 mm 0 W/m2
01:04 19.3 °C 17.4 °C 1018.5 hPa ENE 0.3 km/h 9.7 km/h 89% 0 mm 0 W/m2
01:09 19.2 °C 17.4 °C 1018.5 hPa ENE 0.5 km/h 3.2 km/h 89% 0 mm 0 W/m2
01:14 19.2 °C 17.4 °C 1018.5 hPa Calm   3.2 km/h 89% 0 mm 0 W/m2
01:19 19.2 °C 17.4 °C 1018.5 hPa ENE 0.6 km/h 4.8 km/h 89% 0 mm 0 W/m2
01:24 19.2 °C 17.3 °C 1018.5 hPa Calm   4.8 km/h 89% 0 mm 0 W/m2
01:29 19.2 °C 17.4 °C 1018.5 hPa ENE 0.6 km/h 4.8 km/h 89.3% 0 mm 0 W/m2
01:34 19.2 °C 17.3 °C 1018.5 hPa ENE 1.6 km/h 8 km/h 89% 0 mm 0 W/m2
01:39 19.2 °C 17.3 °C 1018.5 hPa ENE 0.8 km/h 8 km/h 89% 0 mm 0 W/m2
01:44 19.2 °C 17.3 °C 1018.5 hPa ENE 1.6 km/h 8 km/h 89% 0 mm 0 W/m2
01:49 19.2 °C 17.3 °C 1018.5 hPa Calm   8 km/h 89.1% 0 mm 0 W/m2
01:54 19.2 °C 17.4 °C 1018.5 hPa ENE 0.2 km/h 8 km/h 89.7% 0 mm 0 W/m2
01:59 19.2 °C 17.4 °C 1018.5 hPa ENE 1.8 km/h 8 km/h 89.3% 0 mm 0 W/m2
02:04 19.2 °C 17.3 °C 1018.2 hPa ENE 0.5 km/h 8 km/h 89% 0 mm 0 W/m2
02:09 19.2 °C 17.4 °C 1018.2 hPa Calm   6.4 km/h 89.3% 0 mm 0 W/m2
02:14 19.2 °C 17.4 °C 1018.2 hPa ENE 0.2 km/h 6.4 km/h 89.7% 0 mm 0 W/m2
02:19 19.2 °C 17.4 °C 1018.2 hPa ENE 1.1 km/h 14.5 km/h 90% 0 mm 0 W/m2
02:24 19.1 °C 17.4 °C 1018.2 hPa ENE 1.4 km/h 14.5 km/h 90% 0 mm 0 W/m2
02:29 19.1 °C 17.4 °C 1018.2 hPa ENE 0.6 km/h 14.5 km/h 90% 0 mm 0 W/m2
02:34 19.1 °C 17.4 °C 1018.2 hPa ENE 0.3 km/h 14.5 km/h 90% 0 mm 0 W/m2
02:39 19.1 °C 17.4 °C 1018.2 hPa NE 1.1 km/h 9.7 km/h 90% 0 mm 0 W/m2
02:44 19.1 °C 17.5 °C 1018.2 hPa NE 0.2 km/h 9.7 km/h 90.5% 0 mm 0 W/m2
02:49 19.1 °C 17.6 °C 1018.2 hPa NE 0.8 km/h 9.7 km/h 91% 0 mm 0 W/m2
02:54 19.1 °C 17.6 °C 1018.2 hPa Calm   9.7 km/h 91% 0 mm 0 W/m2
02:59 19 °C 17.5 °C 1017.8 hPa NE 0.2 km/h 9.7 km/h 91% 0 mm 0 W/m2
03:04 19 °C 17.5 °C 1017.8 hPa North 1.4 km/h 11.3 km/h 91% 0 mm 0 W/m2
03:09 18.9 °C 17.6 °C 1017.8 hPa NW 1.6 km/h 11.3 km/h 92% 0 mm 0 W/m2
03:14 18.9 °C 17.6 °C 1017.8 hPa NW 0.2 km/h 11.3 km/h 92% 0 mm 0 W/m2
03:19 18.9 °C 17.6 °C 1017.8 hPa NW 0.6 km/h 11.3 km/h 92% 0 mm 0 W/m2
03:24 18.8 °C 17.5 °C 1017.8 hPa NW 1.3 km/h 11.3 km/h 92.1% 0 mm 0 W/m2
03:29 18.8 °C 17.6 °C 1017.8 hPa Calm   11.3 km/h 93% 0 mm 0 W/m2
03:34 18.7 °C 17.6 °C 1017.8 hPa Calm   11.3 km/h 93% 0 mm 0 W/m2
03:39 18.7 °C 17.6 °C 1017.8 hPa NW 0.6 km/h 8 km/h 93% 0 mm 0 W/m2
03:44 18.7 °C 17.5 °C 1017.5 hPa NNW 0.8 km/h 8 km/h 93% 0 mm 0 W/m2
03:49 18.7 °C 17.5 °C 1017.5 hPa NNW 0.2 km/h 8 km/h 93% 0 mm 0 W/m2
03:54 18.7 °C 17.5 °C 1017.5 hPa NNW 0.3 km/h 8 km/h 93% 0 mm 0 W/m2
03:59 18.7 °C 17.5 °C 1017.5 hPa NNW 0.3 km/h 8 km/h 93% 0 mm 0 W/m2
04:09 18.6 °C 17.6 °C 1017.5 hPa Calm     94% 0.25 mm 0 W/m2
04:14 18.6 °C 17.6 °C 1017.5 hPa Calm   3.2 km/h 94% 0.25 mm 0 W/m2
04:19 18.6 °C 17.6 °C 1017.5 hPa NNW 0.5 km/h 6.4 km/h 94% 0.25 mm 0 W/m2
04:24 18.6 °C 17.6 °C 1017.5 hPa NNW 0.8 km/h 6.4 km/h 94% 0.25 mm 0 W/m2
04:29 18.5 °C 17.5 °C 1017.5 hPa North 0.3 km/h 6.4 km/h 94% 0.25 mm 0 W/m2
04:34 18.5 °C 17.5 °C 1017.5 hPa Calm   6.4 km/h 94% 0.25 mm 0 W/m2
04:39 18.5 °C 17.5 °C 1017.5 hPa Calm   1.6 km/h 94% 0.25 mm 0 W/m2
04:44 18.4 °C 17.4 °C 1017.5 hPa Calm   1.6 km/h 94% 0.25 mm 0 W/m2
04:49 18.4 °C 17.4 °C 1017.5 hPa Calm   1.6 km/h 94% 0.25 mm 0 W/m2
04:54 18.4 °C 17.4 °C 1017.5 hPa Calm   1.6 km/h 94% 0.25 mm 0 W/m2
04:59 18.4 °C 17.4 °C 1017.5 hPa Calm   1.6 km/h 94% 0.51 mm 0 W/m2
05:04 18.4 °C 17.4 °C 1017.5 hPa Calm   1.6 km/h 94% 0.51 mm 0 W/m2
05:09 18.4 °C 17.4 °C 1017.5 hPa Calm     94% 0.25 mm 0 W/m2
05:14 18.4 °C 17.4 °C 1017.5 hPa Calm     94.2% 0.25 mm 0 W/m2
05:19 18.3 °C 17.5 °C 1017.5 hPa NNE 0.2 km/h 4.8 km/h 94.9% 0.51 mm 0 W/m2
05:24 18.3 °C 17.6 °C 1017.5 hPa Calm   4.8 km/h 95% 0.51 mm 0 W/m2
05:29 18.3 °C 17.6 °C 1017.5 hPa NNE 0.2 km/h 4.8 km/h 95% 0.51 mm 0 W/m2
05:34 18.3 °C 17.5 °C 1017.5 hPa Calm   4.8 km/h 95% 0.51 mm 0 W/m2
05:39 18.3 °C 17.5 °C 1017.5 hPa Calm   1.6 km/h 95% 0.51 mm 0 W/m2
05:44 18.3 °C 17.5 °C 1017.5 hPa NE 0.8 km/h 8 km/h 95% 0.51 mm 0 W/m2
05:49 18.3 °C 17.5 °C 1017.5 hPa ENE 0.2 km/h 8 km/h 95% 0.51 mm 0 W/m2
05:54 18.3 °C 17.4 °C 1017.5 hPa ENE 1 km/h 9.7 km/h 95% 0.51 mm 0 W/m2
05:59 18.3 °C 17.4 °C 1017.5 hPa ENE 0.3 km/h 9.7 km/h 95% 0.51 mm 0 W/m2
06:04 18.3 °C 17.4 °C 1017.8 hPa ENE 1.8 km/h 9.7 km/h 95% 0.51 mm 0 W/m2
06:09 18.3 °C 17.4 °C 1017.8 hPa ENE 0.3 km/h 9.7 km/h 95% 0.51 mm 0 W/m2
06:14 18.2 °C 17.4 °C 1017.8 hPa ENE 1.1 km/h 9.7 km/h 95% 0.51 mm 5 W/m2
06:19 18.2 °C 17.4 °C 1017.8 hPa Calm   9.7 km/h 95% 0.51 mm 5 W/m2
06:24 18.2 °C 17.4 °C 1017.8 hPa Calm   9.7 km/h 95% 0.76 mm 7 W/m2
06:29 18.3 °C 17.4 °C 1017.8 hPa Calm   9.7 km/h 95% 0.76 mm 9 W/m2
06:34 18.3 °C 17.4 °C 1017.8 hPa ENE 0.2 km/h 9.7 km/h 95% 0.76 mm 9 W/m2
06:39 18.2 °C 17.4 °C 1017.8 hPa ENE 1 km/h 6.4 km/h 95% 0.51 mm 11 W/m2
06:44 18.2 °C 17.4 °C 1017.8 hPa ENE 1.1 km/h 6.4 km/h 95% 0.51 mm 14 W/m2
06:49 18.2 °C 17.4 °C 1017.8 hPa ENE 0.8 km/h 6.4 km/h 95% 0.51 mm 14 W/m2
06:54 18.2 °C 17.4 °C 1017.8 hPa Calm   6.4 km/h 95% 0.51 mm 16 W/m2
06:59 18.3 °C 17.4 °C 1017.8 hPa Calm   6.4 km/h 95% 0.51 mm 23 W/m2
07:04 18.3 °C 17.6 °C 1017.8 hPa Calm   6.4 km/h 95.4% 0.51 mm 19 W/m2
07:09 18.3 °C 17.7 °C 1017.8 hPa Calm   3.2 km/h 96% 0.76 mm 19 W/m2
07:14 18.3 °C 17.7 °C 1017.8 hPa ENE 0.2 km/h 3.2 km/h 96% 0.76 mm 19 W/m2
07:19 18.3 °C 17.7 °C 1017.8 hPa Calm   3.2 km/h 96% 0.76 mm 21 W/m2
07:24 18.3 °C 17.7 °C 1018.2 hPa ENE 0.3 km/h 4.8 km/h 96% 0.76 mm 26 W/m2
07:29 18.4 °C 17.7 °C 1018.2 hPa ENE 0.5 km/h 6.4 km/h 96% 0.76 mm 33 W/m2
07:34 18.4 °C 17.8 °C 1017.8 hPa NNE 1.8 km/h 11.3 km/h 96% 0.76 mm 39 W/m2
07:39 18.4 °C 17.8 °C 1017.8 hPa Calm   11.3 km/h 96% 0.25 mm 33 W/m2
07:44 18.4 °C 17.8 °C 1017.8 hPa NW 0.6 km/h 11.3 km/h 96% 0.25 mm 32 W/m2
07:49 18.4 °C 17.8 °C 1017.8 hPa North 0.3 km/h 11.3 km/h 96% 0.25 mm 37 W/m2
07:54 18.4 °C 17.8 °C 1017.8 hPa NE 0.2 km/h 11.3 km/h 96% 0.25 mm 37 W/m2
07:59 18.4 °C 17.8 °C 1017.8 hPa NE 0.2 km/h 11.3 km/h 96% 0.25 mm 28 W/m2
08:00 18.4 °C 17.8 °C 1017.8 hPa Calm   11.3 km/h 96% 0.25 mm 26 W/m2
08:09 18.4 °C 17.8 °C 1017.8 hPa Calm   1.6 km/h 96% 0.25 mm 30 W/m2
08:14 18.4 °C 17.8 °C 1017.8 hPa Calm   1.6 km/h 96% 0.25 mm 37 W/m2
08:19 18.4 °C 17.8 °C 1017.8 hPa Calm   1.6 km/h 96% 0.25 mm 39 W/m2
08:24 18.4 °C 17.8 °C 1017.8 hPa Calm   1.6 km/h 96% 0.25 mm 40 W/m2
08:29 18.5 °C 17.9 °C 1017.8 hPa NNE 0.8 km/h 6.4 km/h 96% 0.25 mm 37 W/m2
08:34 18.6 °C 17.9 °C 1017.8 hPa Calm   6.4 km/h 96% 0.25 mm 40 W/m2
08:39 18.6 °C 17.9 °C 1017.5 hPa NNE 0.5 km/h 4.8 km/h 96% 0 mm 44 W/m2
08:44 18.5 °C 17.8 °C 1017.5 hPa NNE 1 km/h 8 km/h 95.4% 0 mm 47 W/m2
08:49 18.5 °C 17.7 °C 1017.5 hPa NNE 0.5 km/h 8 km/h 95% 0 mm 47 W/m2
08:54 18.4 °C 17.7 °C 1017.5 hPa NNE 0.3 km/h 8 km/h 95.5% 0 mm 46 W/m2
08:59 18.4 °C 17.8 °C 1017.5 hPa North 1.1 km/h 8 km/h 95.8% 0 mm 47 W/m2
09:04 18.5 °C 17.7 °C 1017.5 hPa NNE 0.3 km/h 8 km/h 95.3% 0 mm 47 W/m2
09:09 18.6 °C 17.9 °C 1017.8 hPa NNE 1.1 km/h 8 km/h 96% 0 mm 44 W/m2
09:14 18.6 °C 17.9 °C 1017.5 hPa Calm   8 km/h 95.7% 0 mm 53 W/m2
09:19 18.7 °C 18 °C 1017.8 hPa NW 1.4 km/h 11.3 km/h 96% 0 mm 53 W/m2
09:24 18.7 °C 18 °C 1017.8 hPa Calm   11.3 km/h 96% 0 mm 49 W/m2
09:29 18.7 °C 18.1 °C 1017.8 hPa Calm   11.3 km/h 96% 0 mm 58 W/m2
09:34 18.8 °C 18.1 °C 1017.8 hPa NW 0.3 km/h 11.3 km/h 96% 0 mm 54 W/m2
09:39 18.8 °C 18.2 °C 1017.8 hPa NW 0.3 km/h 6.4 km/h 96% 0 mm 72 W/m2
09:44 18.8 °C 18.1 °C 1017.8 hPa NW 0.3 km/h 6.4 km/h 95.4% 0 mm 69 W/m2
09:49 18.8 °C 18 °C 1017.8 hPa NW 2.1 km/h 14.5 km/h 95% 0 mm 69 W/m2
09:54 18.8 °C 18 °C 1017.5 hPa NW 0.6 km/h 14.5 km/h 95% 0 mm 79 W/m2
09:59 18.9 °C 18.1 °C 1017.8 hPa NNW 1.9 km/h 14.5 km/h 95% 0 mm 83 W/m2
10:04 18.9 °C 18.1 °C 1017.8 hPa NNW 1 km/h 14.5 km/h 95% 0 mm 81 W/m2
10:09 18.9 °C 18.1 °C 1017.8 hPa North 0.2 km/h 8 km/h 95% 0 mm 97 W/m2
10:14 19 °C 18.2 °C 1017.8 hPa Calm   8 km/h 95% 0 mm 97 W/m2
10:19 19.1 °C 18.2 °C 1017.8 hPa North 1.3 km/h 8 km/h 95% 0 mm 83 W/m2
10:24 19.1 °C 18.2 °C 1017.8 hPa NNE 0.2 km/h 8 km/h 95% 0 mm 83 W/m2
10:29 19.1 °C 18.3 °C 1017.8 hPa Calm   8 km/h 95% 0 mm 69 W/m2
10:34 19.1 °C 18.3 °C 1017.8 hPa Calm   8 km/h 95% 0 mm 95 W/m2
10:39 19.2 °C 18.3 °C 1017.8 hPa NNE 1.4 km/h 8 km/h 95% 0 mm 97 W/m2
10:44 19.3 °C 18.4 °C 1018.2 hPa NNE 0.8 km/h 8 km/h 95% 0 mm 97 W/m2
10:49 19.3 °C 18.6 °C 1018.2 hPa NNE 0.6 km/h 8 km/h 95% 0 mm 111 W/m2
10:54 19.4 °C 18.6 °C 1018.2 hPa NNE 0.8 km/h 8 km/h 95% 0 mm 111 W/m2
10:59 19.4 °C 18.6 °C 1018.2 hPa Calm   8 km/h 95% 0 mm 97 W/m2
11:04 19.4 °C 18.6 °C 1018.2 hPa NNE 1.1 km/h 8 km/h 94.8% 0 mm 84 W/m2
11:09 19.5 °C 18.5 °C 1018.2 hPa Calm   8 km/h 94% 0 mm 79 W/m2
11:14 19.6 °C 18.6 °C 1018.2 hPa NNE 0.3 km/h 8 km/h 94% 0 mm 104 W/m2
11:19 19.5 °C 18.6 °C 1018.2 hPa NNE 0.3 km/h 8 km/h 94% 0 mm 104 W/m2
11:24 19.6 °C 18.6 °C 1018.2 hPa NNW 1.3 km/h 8 km/h 94% 0 mm 107 W/m2
11:29 19.6 °C 18.6 °C 1018.2 hPa North 0.3 km/h 8 km/h 94% 0 mm 107 W/m2
11:34 19.6 °C 18.6 °C 1018.2 hPa North 1.3 km/h 9.7 km/h 94% 0 mm 121 W/m2
11:39 19.6 °C 18.6 °C 1018.2 hPa NNW 2.1 km/h 11.3 km/h 94% 0 mm 111 W/m2
11:44 19.6 °C 18.6 °C 1018.2 hPa NNW 1.4 km/h 11.3 km/h 94% 0 mm 139 W/m2
11:49 19.7 °C 18.7 °C 1018.2 hPa NNW 1.1 km/h 11.3 km/h 94% 0 mm 114 W/m2
11:54 19.8 °C 18.8 °C 1018.2 hPa WNW 1.9 km/h 14.5 km/h 94% 0 mm 114 W/m2
11:59 19.8 °C 18.8 °C 1018.2 hPa NW 0.8 km/h 14.5 km/h 94% 0 mm 114 W/m2
12:00 19.8 °C 18.8 °C 1018.2 hPa Calm   14.5 km/h 94% 0 mm 114 W/m2
12:09 19.9 °C 18.9 °C 1018.2 hPa NNW 1.8 km/h 6.4 km/h 94% 0 mm 192 W/m2
12:14 19.9 °C 18.9 °C 1018.2 hPa NNW 3.5 km/h 11.3 km/h 93.8% 0 mm 155 W/m2
12:19 20 °C 18.9 °C 1017.8 hPa NW 1.4 km/h 11.3 km/h 93.5% 0 mm 221 W/m2
12:24 20.1 °C 19 °C 1017.8 hPa NW 0.8 km/h 11.3 km/h 93.5% 0 mm 304 W/m2
12:29 20.2 °C 19.1 °C 1017.8 hPa NNW 3.4 km/h 11.3 km/h 93.3% 0 mm 308 W/m2
12:34 20.3 °C 19.2 °C 1017.8 hPa NNW 4.5 km/h 17.7 km/h 93% 0 mm 258 W/m2
12:39 20.4 °C 19.1 °C 1017.8 hPa NNW 0.6 km/h 17.7 km/h 92.2% 0 mm 258 W/m2
12:44 20.6 °C 19.2 °C 1017.8 hPa North 0.3 km/h 17.7 km/h 92% 0 mm 262 W/m2
12:49 20.7 °C 19.2 °C 1017.8 hPa NE 1.9 km/h 17.7 km/h 91.3% 0 mm 306 W/m2
12:54 20.8 °C 19.2 °C 1017.8 hPa North 0.3 km/h 17.7 km/h 90.5% 0 mm 139 W/m2
12:59 20.8 °C 19 °C 1017.8 hPa NNE 0.2 km/h 17.7 km/h 89.3% 0 mm 113 W/m2
13:04 20.8 °C 18.8 °C 1017.8 hPa NNW 2.6 km/h 17.7 km/h 88.3% 0 mm 149 W/m2
13:09 20.8 °C 18.8 °C 1017.5 hPa NNW 0.3 km/h 9.7 km/h 88.4% 0 mm 153 W/m2
13:14 20.9 °C 18.9 °C 1017.5 hPa North 0.3 km/h 9.7 km/h 88.4% 0 mm 185 W/m2
13:19 20.9 °C 18.7 °C 1017.5 hPa NE 1.8 km/h 9.7 km/h 87.4% 0 mm 202 W/m2
13:24 20.9 °C 18.8 °C 1017.5 hPa North 1.8 km/h 14.5 km/h 87.4% 0 mm 197 W/m2
13:29 21.1 °C 18.8 °C 1017.5 hPa NNW 5.5 km/h 17.7 km/h 87% 0 mm 218 W/m2
13:34 21.2 °C 18.8 °C 1017.5 hPa North 1.6 km/h 20.9 km/h 86.5% 0 mm 248 W/m2
13:39 21.2 °C 18.8 °C 1017.5 hPa NNE 0.8 km/h 20.9 km/h 86.2% 0 mm 429 W/m2
13:44 21.4 °C 19.1 °C 1017.5 hPa NNW 2.1 km/h 20.9 km/h 86.5% 0 mm 429 W/m2
13:49 21.6 °C 18.9 °C 1017.5 hPa NE 3.1 km/h 20.9 km/h 84.8% 0 mm 413 W/m2
13:54 21.6 °C 18.8 °C 1017.5 hPa ENE 1.3 km/h 20.9 km/h 84% 0 mm 378 W/m2
13:59 21.7 °C 18.9 °C 1017.2 hPa ENE 3.2 km/h 20.9 km/h 84.3% 0 mm 336 W/m2
14:04 21.8 °C 18.9 °C 1017.2 hPa NE 0.6 km/h 20.9 km/h 83.5% 0 mm 174 W/m2
14:09 21.8 °C 18.9 °C 1017.2 hPa East 1 km/h 6.4 km/h 83.5% 0 mm 540 W/m2
14:14 21.9 °C 18.9 °C 1017.5 hPa NE 1.4 km/h 8 km/h 83.3% 0 mm 540 W/m2
14:19 22 °C 19.2 °C 1017.5 hPa NNW 4.8 km/h 14.5 km/h 84% 0 mm 267 W/m2
14:24 22.1 °C 19.2 °C 1017.2 hPa NW 1.3 km/h 14.5 km/h 84% 0 mm 411 W/m2
14:29 22.2 °C 19.4 °C 1017.2 hPa NNW 0.6 km/h 14.5 km/h 84.1% 0 mm 348 W/m2
14:34 22.3 °C 19.2 °C 1017.2 hPa NE 0.8 km/h 14.5 km/h 82.5% 0 mm 178 W/m2
14:39 22.3 °C 19.3 °C 1017.5 hPa NNE 0.3 km/h 4.8 km/h 82.8% 0 mm 209 W/m2
14:44 22.4 °C 19.5 °C 1017.5 hPa WNW 2.6 km/h 11.3 km/h 83.5% 0 mm 367 W/m2
14:49 22.6 °C 19.6 °C 1017.2 hPa NNW 1.8 km/h 11.3 km/h 83.2% 0 mm 559 W/m2
14:54 22.7 °C 19.6 °C 1017.2 hPa NNW 2.3 km/h 11.3 km/h 82.2% 0 mm 232 W/m2
14:59 22.8 °C 19.4 °C 1017.2 hPa NE 1.6 km/h 11.3 km/h 81.2% 0 mm 213 W/m2
15:04 22.8 °C 19.6 °C 1017.2 hPa NNW 0.6 km/h 11.3 km/h 82% 0 mm 443 W/m2
15:09 22.9 °C 19.7 °C 1016.8 hPa North 1.3 km/h 11.3 km/h 82% 0 mm 457 W/m2
15:14 23.1 °C 19.6 °C 1016.8 hPa NE 2.7 km/h 16.1 km/h 80.8% 0 mm 446 W/m2
15:19 23.1 °C 19.3 °C 1016.8 hPa ENE 0.8 km/h 16.1 km/h 79.3% 0 mm 213 W/m2
15:24 23.1 °C 19.5 °C 1016.8 hPa Calm   16.1 km/h 80.5% 0 mm 257 W/m2
15:29 23.1 °C 19.6 °C 1016.8 hPa NNW 3.1 km/h 16.1 km/h 80.6% 0 mm 262 W/m2
15:34 23.1 °C 19.5 °C 1016.8 hPa ENE 1.8 km/h 16.1 km/h 80.3% 0 mm 181 W/m2
15:39 23 °C 19.4 °C 1016.8 hPa ENE 0.6 km/h 9.7 km/h 80% 0 mm 167 W/m2
15:44 22.9 °C 19.5 °C 1016.8 hPa ENE 0.5 km/h 9.7 km/h 80.9% 0 mm 202 W/m2
15:49 23 °C 19.6 °C 1016.8 hPa NNE 0.2 km/h 9.7 km/h 81.2% 0 mm 253 W/m2
15:54 23.1 °C 19.7 °C 1016.8 hPa NW 1.8 km/h 9.7 km/h 81% 0 mm 318 W/m2
15:59 23.2 °C 19.8 °C 1016.8 hPa NE 1.8 km/h 11.3 km/h 80.9% 0 mm 352 W/m2
16:09 23.5 °C 20.1 °C 1016.8 hPa Calm     80.9% 0 mm 362 W/m2
16:14 23.6 °C 19.8 °C 1016.8 hPa Calm     79.2% 0 mm 290 W/m2
16:19 23.7 °C 19.9 °C 1016.8 hPa NE 0.6 km/h 6.4 km/h 79.5% 0 mm 253 W/m2
16:24 23.7 °C 19.6 °C 1016.5 hPa East 1 km/h 8 km/h 78.1% 0 mm 229 W/m2
16:29 23.7 °C 19.9 °C 1016.5 hPa NE 0.2 km/h 8 km/h 79.6% 0 mm 199 W/m2
16:34 23.7 °C 19.8 °C 1016.5 hPa NW 1.1 km/h 8 km/h 79% 0 mm 174 W/m2
16:39 23.7 °C 19.7 °C 1016.5 hPa NNE 0.3 km/h 8 km/h 78% 0 mm 199 W/m2
16:44 23.8 °C 19.8 °C 1016.8 hPa North 0.6 km/h 8 km/h 78.6% 0 mm 216 W/m2
16:49 23.8 °C 19.8 °C 1016.8 hPa NNW 0.6 km/h 8 km/h 78.1% 0 mm 216 W/m2
16:54 23.9 °C 19.7 °C 1016.8 hPa NNW 0.2 km/h 8 km/h 77.4% 0 mm 155 W/m2
16:59 23.9 °C 19.8 °C 1016.8 hPa NNW 0.2 km/h 8 km/h 77.8% 0 mm 156 W/m2
17:04 23.9 °C 19.8 °C 1016.8 hPa NNW 0.2 km/h 8 km/h 77.8% 0 mm 160 W/m2
17:09 23.9 °C 19.8 °C 1016.8 hPa North 0.3 km/h 3.2 km/h 77.6% 0 mm 151 W/m2
17:14 23.9 °C 19.8 °C 1016.8 hPa NNE 0.5 km/h 3.2 km/h 77.5% 0 mm 130 W/m2
17:19 23.8 °C 19.6 °C 1016.8 hPa NE 1 km/h 4.8 km/h 77.1% 0 mm 111 W/m2
17:24 23.8 °C 19.7 °C 1016.8 hPa NE 0.3 km/h 4.8 km/h 77.9% 0 mm 109 W/m2
17:29 23.8 °C 19.8 °C 1016.8 hPa NE 0.2 km/h 4.8 km/h 78.3% 0 mm 102 W/m2
17:34 23.7 °C 19.7 °C 1016.8 hPa NE 0.2 km/h 4.8 km/h 78% 0 mm 90 W/m2
17:39 23.7 °C 19.6 °C 1016.8 hPa Calm   3.2 km/h 78% 0 mm 79 W/m2
17:44 23.6 °C 19.6 °C 1016.8 hPa NE 0.3 km/h 3.2 km/h 78% 0 mm 77 W/m2
17:49 23.6 °C 19.5 °C 1016.8 hPa NE 0.6 km/h 3.2 km/h 78% 0 mm 81 W/m2
17:54 23.5 °C 19.4 °C 1016.8 hPa NE 0.2 km/h 3.2 km/h 78% 0 mm 113 W/m2
17:59 23.4 °C 19.4 °C 1016.8 hPa NE 0.2 km/h 3.2 km/h 78% 0 mm 114 W/m2
18:04 23.4 °C 19.4 °C 1016.8 hPa Calm   3.2 km/h 78.2% 0 mm 102 W/m2
18:09 23.5 °C 19.5 °C 1016.8 hPa Calm   1.6 km/h 78.3% 0 mm 84 W/m2
18:14 23.5 °C 19.6 °C 1016.8 hPa Calm   1.6 km/h 78.6% 0 mm 76 W/m2
18:19 23.5 °C 19.6 °C 1016.8 hPa NE 0.2 km/h 1.6 km/h 78.9% 0 mm 65 W/m2
18:24 23.5 °C 19.5 °C 1016.8 hPa NE 1 km/h 4.8 km/h 78.3% 0 mm 60 W/m2
18:29 23.5 °C 19.4 °C 1016.8 hPa NE 0.6 km/h 4.8 km/h 78% 0 mm 53 W/m2
18:34 23.5 °C 19.5 °C 1016.8 hPa NE 0.5 km/h 4.8 km/h 78.2% 0 mm 47 W/m2
18:39 23.5 °C 19.5 °C 1016.8 hPa NE 0.3 km/h 3.2 km/h 78.4% 0 mm 58 W/m2
18:44 23.5 °C 19.6 °C 1016.8 hPa Calm   3.2 km/h 78.8% 0 mm 72 W/m2
18:49 23.6 °C 19.5 °C 1016.8 hPa Calm   3.2 km/h 78% 0 mm 70 W/m2
18:54 23.6 °C 19.6 °C 1016.8 hPa Calm   3.2 km/h 78% 0 mm 39 W/m2
18:59 23.6 °C 19.6 °C 1016.8 hPa Calm   3.2 km/h 78% 0 mm 23 W/m2
19:04 23.6 °C 19.5 °C 1016.8 hPa Calm   3.2 km/h 77.8% 0 mm 26 W/m2
19:09 23.5 °C 19.4 °C 1016.8 hPa Calm   1.6 km/h 77.9% 0 mm 28 W/m2
19:14 23.5 °C 19.4 °C 1016.8 hPa Calm   1.6 km/h 78% 0 mm 28 W/m2
19:19 23.5 °C 19.4 °C 1016.8 hPa Calm   1.6 km/h 78% 0 mm 23 W/m2
19:24 23.4 °C 19.4 °C 1016.8 hPa Calm   1.6 km/h 78% 0 mm 23 W/m2
19:29 23.4 °C 19.4 °C 1016.8 hPa Calm   1.6 km/h 78% 0 mm 19 W/m2
19:34 23.4 °C 19.3 °C 1016.8 hPa Calm   1.6 km/h 78% 0 mm 14 W/m2
19:39 23.3 °C 19.3 °C 1016.8 hPa Calm     78% 0 mm 11 W/m2
19:44 23.3 °C 19.3 °C 1017.2 hPa Calm     78% 0 mm 7 W/m2
19:49 23.2 °C 19.2 °C 1017.2 hPa Calm     78% 0 mm 5 W/m2
19:54 23.2 °C 19.1 °C 1017.2 hPa Calm     78% 0 mm 0 W/m2
19:59 23.1 °C 19.2 °C 1017.2 hPa Calm     78.4% 0 mm 0 W/m2
20:09 22.9 °C 19.1 °C 1017.2 hPa Calm     79% 0 mm 0 W/m2
20:14 22.8 °C 19.2 °C 1017.2 hPa Calm     79.9% 0 mm 0 W/m2
20:19 22.7 °C 19.1 °C 1017.2 hPa Calm     80% 0 mm 0 W/m2
20:24 22.6 °C 19.1 °C 1017.2 hPa Calm     80.8% 0 mm 0 W/m2
20:29 22.4 °C 19.1 °C 1017.2 hPa Calm     81.6% 0 mm 0 W/m2
20:34 22.3 °C 19.2 °C 1017.5 hPa Calm     82.4% 0 mm 0 W/m2
20:39 22.2 °C 19.1 °C 1017.5 hPa Calm     82.8% 0 mm 0 W/m2
20:44 22.1 °C 19.1 °C 1017.5 hPa Calm     83.2% 0 mm 0 W/m2
20:49 21.9 °C 19.1 °C 1017.5 hPa Calm     84% 0 mm 0 W/m2
20:54 21.8 °C 19 °C 1017.5 hPa Calm     84.3% 0 mm 0 W/m2
20:59 21.6 °C 19 °C 1017.5 hPa Calm     85% 0 mm 0 W/m2
21:04 21.5 °C 19 °C 1017.8 hPa Calm     85.6% 0 mm 0 W/m2
21:09 21.4 °C 19 °C 1017.8 hPa Calm     86% 0 mm 0 W/m2
21:14 21.3 °C 18.9 °C 1017.8 hPa Calm     86% 0 mm 0 W/m2
21:19 21.3 °C 18.9 °C 1017.8 hPa Calm     86.6% 0 mm 0 W/m2
21:24 21.2 °C 18.9 °C 1017.8 hPa Calm     87% 0 mm 0 W/m2
21:29 21.1 °C 18.8 °C 1017.8 hPa Calm     87% 0 mm 0 W/m2
21:34 21 °C 18.9 °C 1017.8 hPa Calm     88% 0 mm 0 W/m2
21:39 20.9 °C 18.9 °C 1017.8 hPa Calm     88% 0 mm 0 W/m2
21:44 20.8 °C 18.8 °C 1018.2 hPa Calm     88% 0 mm 0 W/m2
21:49 20.8 °C 18.7 °C 1018.2 hPa Calm     88.2% 0 mm 0 W/m2
21:54 20.7 °C 18.8 °C 1018.2 hPa Calm     89% 0 mm 0 W/m2
21:59 20.6 °C 18.7 °C 1018.5 hPa Calm     89% 0 mm 0 W/m2
22:04 20.5 °C 18.6 °C 1018.2 hPa Calm     89% 0 mm 0 W/m2
22:09 20.4 °C 18.6 °C 1018.5 hPa Calm     89% 0 mm 0 W/m2
22:14 20.3 °C 18.6 °C 1018.5 hPa Calm     89.8% 0 mm 0 W/m2
22:19 20.3 °C 18.6 °C 1018.5 hPa Calm     90% 0 mm 0 W/m2
22:24 20.3 °C 18.6 °C 1018.5 hPa Calm     90% 0 mm 0 W/m2
22:29 20.2 °C 18.5 °C 1018.5 hPa Calm     90% 0 mm 0 W/m2
22:34 20.2 °C 18.6 °C 1018.5 hPa Calm     90.8% 0 mm 0 W/m2
22:39 20.1 °C 18.6 °C 1018.5 hPa Calm     90.7% 0 mm 0 W/m2
22:44 20.1 °C 18.6 °C 1018.5 hPa Calm     91% 0 mm 0 W/m2
22:49 20.1 °C 18.6 °C 1018.5 hPa Calm     91% 0 mm 0 W/m2
22:54 20.1 °C 18.5 °C 1018.5 hPa Calm     91% 0 mm 0 W/m2
22:59 20 °C 18.4 °C 1018.5 hPa Calm     91% 0 mm 0 W/m2
23:04 19.9 °C 18.4 °C 1018.5 hPa Calm     91% 0 mm 0 W/m2
23:09 19.8 °C 18.3 °C 1018.5 hPa Calm     91% 0 mm 0 W/m2
23:14 19.8 °C 18.3 °C 1018.5 hPa Calm     91.3% 0 mm 0 W/m2
23:19 19.7 °C 18.2 °C 1018.5 hPa Calm     91% 0 mm 0 W/m2
23:24 19.7 °C 18.3 °C 1018.5 hPa Calm     92% 0 mm 0 W/m2
23:29 19.7 °C 18.3 °C 1018.5 hPa Calm     92% 0 mm 0 W/m2
23:34 19.6 °C 18.2 °C 1018.5 hPa Calm     92% 0 mm 0 W/m2
23:39 19.5 °C 18.2 °C 1018.5 hPa Calm     92% 0 mm 0 W/m2
23:44 19.4 °C 18.1 °C 1018.5 hPa Calm     92% 0 mm 0 W/m2
23:49 19.3 °C 18 °C 1018.5 hPa Calm     92% 0 mm 0 W/m2
23:54 19.3 °C 17.9 °C 1018.5 hPa Calm     92% 0 mm 0 W/m2
23:59 19.2 °C 17.9 °C 1018.5 hPa Calm     92% 0 mm 0 W/m2
Hartford County Weather
Compliments of Weather Underground - 2 mb